www.pogodaiklimat.ru

Погода и климат >> Архив погоды >> Мексика >> Puerto Angel


ПОГОДА в Puerto Angel

  • Прогноз погоды в Puerto Angel
  • Монитор погоды в Puerto Angel
  • Климат города

АРХИВ ПОГОДЫ в Puerto Angel

Время (UTC), дата Ветер
(напр.,м/с)
 
Видим.   Явления Облачность Т
(С)
Тd
(С)
f
(%)
Тe
(С)
Тes
(С)
Комфортность P
(гПа)
Po
(гПа)
Тmin
(С)
Tmax
(С)
R
(мм)
R24
(мм)
S
(см)
06 15.05 В 1 30 км 8/3 600 м
[Cu med, cong Ac und]
+27.0 +20.6 68 +34 +34 очень
душно
1014.6 1009.7 +24.0 +34.6
12 15.05 В 1 30 км 6/1 600 м
[Cu med, cong Cs]
+26.0 +21.5 76 +33 +33 очень
душно
1012.6 1007.7 +25.0 +34.6
15 15.05 В 1 30 км 6/1 600 м
[Cu med, cong Cs]
+30.2 +22.9 65 +40 +49 очень
душно
1012.7 1007.8
18 15.05 Ю 1 30 км 8/1 600 м
[Cu med, cong Cs]
+32.8 +24.0 60 +45 +64 опасность
перегрева
1013.5 1008.6 +25.0 +33.4
21 15.05 ЮЗ 1 30 км 9/1 600 м
[Cu med, cong Cs]
+33.6 +23.9 57 +45 +58 опасность
перегрева
1012.4 1007.6
00 16.05 ЮЗ 1 30 км 9/1 600 м
[Cu med, cong Ac trans Cs]
+31.4 +23.6 63 +42 +43 опасность
перегрева
1010.1 1005.3 +25.0 +34.4
03 16.05 С 1 30 км 5/1 600 м
[Cu med, cong Ac trans]
+29.6 +23.5 70 +40 +40 очень
душно
1011.1 1006.3
09 16.05 С 1 30 км 1/1 600 м
[Cu med, cong]
+26.4 +22.6 80 +35 +35 очень
душно
1011.8 1006.9
12 16.05 С 1 30 км 6/1 600 м
[Cu med, cong Cs]
+25.8 +21.6 78 +33 +33 очень
душно
1010.7 1005.8 +24.4 +34.4
15 16.05 СВ 1 30 км 8/1 600 м
[Cu med, cong Ac trans Cs]
+29.8 +22.8 66 +39 +46 очень
душно
1011.6 1006.7
18 16.05 ЮВ 1 30 км 6/1 600 м
[Cu med, cong Cs]
+32.2 +24.8 65 +45 +66 опасность
перегрева
1012.4 1007.5 +24.4 +33.0
21 16.05 ЮВ 1 30 км 8/1 600 м
[Cu med, cong Ac und Cs]
+32.4 +24.1 62 +45 +54 опасность
перегрева
1010.9 1006.0
00 17.05 Ю 1 30 км 8/1 600 м
[Cu med, cong Ac trans Cs]
+30.8 +24.8 70 +44 +44 опасность
перегрева
1009.5 1004.6 +24.4 +34.6
03 17.05 Ю 1 30 км 6/1 600 м
[Cu med, cong Cs]
+29.2 +24.6 76 +41 +41 опасность
перегрева
1010.2 1005.4
12 17.05 С 1 30 км 8/1 600 м
[Cu med, cong Cs]
+25.2 +22.8 87 +33 +33 очень
душно
1010.9 1006.0 +24.0
15 17.05 ЮЗ 2 30 км 3/1 600 м
[Cu med, cong]
+29.6 +24.1 72 +41 +49 опасность
перегрева
1012.1 1007.2
18 17.05 З 3 30 км 5/1 600 м
[Cu med, cong Ac As Cs]
+31.8 +25.0 67 +45 +58 опасность
перегрева
1012.2 1007.3 +24.0 +32.4
00 18.05 ЮЗ 3 30 км 4/1 600 м
[Cu med, cong Ac As]
+30.6 +24.0 68 +42 +43 опасность
перегрева
1009.1 1004.3 +24.0 +33.4
03 18.05 З 2 20 км 8/4 600 м
[Cu med, cong Ac und]
+29.8 +23.1 67 +40 +40 очень
душно
1012.2 1007.4
06 18.05 СЗ 2 20 км 8/3 600 м
[Cu med, cong Ac und Cs]
+29.2 +23.1 70 +39 +39 очень
душно
1012.6 1007.7 +24.0 +33.4
09 18.05 СЗ 2 20 км 5/0
[Cs]
+28.0 +23.6 77 +38 +38 очень
душно
1010.9 1006.0
15 18.05 Ю 3 30 км 4/1 600 м
[Cu med, cong Cs]
+31.2 +24.3 67 +43 +50 опасность
перегрева
1011.9 1007.0
18 18.05 СЗ 3 30 км 6/1 600 м
[Cu med, cong Ac As Cs]
+33.0 +25.1 63 +47 +58 опасность
перегрева
1011.3 1006.4 +26.0 +33.2
21 18.05 ЮЗ 4 30 км 8/1 600 м
[Cu med, cong Ac As Cs]
+32.4 +25.4 67 +47 +52 опасность
перегрева
1009.3 1004.4
00 19.05 СЗ 3 30 км 10/3 600 м
[Cu med, cong Ac As Cs]
+30.8 +25.1 72 +45 +45 опасность
перегрева
1008.8 1003.9 +24.0 +34.0
03 19.05 СЗ 4 20 км 9/4 600 м
[Cu med, cong Ac cuf Cs]
+28.4 +23.8 76 +39 +39 очень
душно
1010.7 1005.9
06 19.05 ЮЗ 4 20 км 9/6 600 м
[Cb cap Ci ing]
+27.6 +24.4 83 +39 +39 очень
душно
1012.6 1007.7 +24.0 +34.0
09 19.05 СЗ 2 20 км 3/3 750 м
[Cb cap]
+26.6 +24.0 86 +37 +37 очень
душно
1011.1 1006.2
12 19.05 СЗ 3 20 км 1/0
[Cs]
+26.0 +23.4 86 +35 +35 очень
душно
1010.9 1005.9 +25.0 +34.0
15 19.05 ЮЗ 2 30 км 3/1 600 м
[Cu med, cong Cs]
+29.8 +25.0 75 +43 +51 опасность
перегрева
1011.3 1006.4
18 19.05 ЮЗ 3 30 км 4/1 600 м
[Cu med, cong Ac As]
+32.2 +26.1 70 +48 +60 опасность
перегрева
1011.3 1006.4 +25.0 +32.4
21 19.05 ЮЗ 4 30 км 1/1 750 м
[Cb calv]
+32.4 +25.7 68 +48 +56 опасность
перегрева
1010.2 1005.3
00 20.05 ЮЗ 2 30 км 9/5 600 м
[Cb cap Ac cuf Ci ing]
+31.2 +25.6 72 +46 +46 опасность
перегрева
1010.0 1005.1 +25.0 +33.6
03 20.05 В 1 20 км {гроза, морось} 9/5 600 м
[Cb cap Ac cuf Ci ing]
+27.4 +24.5 84 +39 +39 очень
душно
1011.5 1006.7 0.5
06 20.05 С 2 20 км 8/3 600 м
[Cu med, cong Ac cuf Ci ing]
+26.6 +24.6 89 +38 +38 очень
душно
1012.3 1007.4 +25.0 +33.6
12 20.05 С 2 20 км 5/1 600 м
[Cu med, cong Ac und Cs]
+26.0 +24.3 90 +36 +36 очень
душно
1011.2 1006.3 +25.0 +33.6
15 20.05 ЮЗ 2 30 км 8/3 600 м
[Cu med, cong Ac und Cs]
+29.4 +25.1 78 +43 +47 опасность
перегрева
1012.5 1007.6
18 20.05 Ю 2 30 км 4/1 600 м
[Cu med, cong Cs]
+32.2 +26.1 70 +48 +66 опасность
перегрева
1012.4 1007.5 +25.0 +33.0
12 21.05 СЗ 2 30 км ясно +27.6 +23.8 80 +38 +38 очень
душно
1011.7 1006.8 +26.0 +33.2
21 21.05 С 2 30 км {дождь} 9/1 600 м
[Cu med, cong Ac As Cs]
+24.6 +22.4 88 +32 +39 очень
душно
1012.2 1007.3 1
00 22.05 СЗ 2 30 км 9/1 600 м
[Cu med, cong Ac As Cs]
+29.0 +24.7 78 +41 +42 опасность
перегрева
1010.6 1005.7 +26.0 +33.4

 

Местоположение метеостанции Puerto Angel (Мексика): широта 15.68 долгота -96.48 высота над уровнем моря 46 м.

В архиве по умолчанию представлена погода в Puerto Angel за последнюю неделю. Архивные данные за месяц целиком и за предыдущие месяцы, начиная с января 2011 года, Вы можете получить, выбрав интересующий диапазон дат из раскрывающегося списка и нажав кнопку "Ввод!".


*Определитесь, кто Вы:
робот инопланетянин человек

Внимание! Время в таблицах - всемирное. Для получения местного времени необходимо прибавить поправку, которая в Puerto Angel равна -6 ч.

Смотрите также архив погоды в соседних городах и на ближайших метеорологических станциях:

Погода в Salina Cruz (Мексика) (149 км)
Погода в Oaxaca (Мексика) (154 км)
Погода в Huajuapan De Leon (Мексика) (273 км)
Погода в Arriaga (Мексика) (283 км)
Погода в Coatzacoalcos (Мексика) (350 км)
Погода в Orizaba (Мексика) (359 км)
Погода в Cordoba-In-Veracruz (Мексика) (361 км)
Погода в Tuxtla Gutierrez (Мексика) (377 км)
Погода в Chilpancingo (Мексика) (383 км)
Погода в Verakruz (Мексика) (388 км)

Пояснения к столбцам:

Ветер - указаны скорость ветра в м/с - средняя за 10 мин, порывы в срок и между сроками (в фигурных скобках) и направление, откуда дует ветер: С - северный, СВ - северо-восточный, В - восточный, ЮВ - юго-восточный, Ю - южный, ЮЗ - юго-западный, З - западный, СЗ - северо-западный.
Видимость - горизонтальная дальность видимости в метрах или километрах. При видимости от 1 до 10 км при отсутствии осадков обычно наблюдается дымка, при ухудшении видимости до 1 км и менее - туман. В сухую погоду видимость может ухудшаться дымом, пылью или мглою.
Явления - указаны атмосферные явления, наблюдавшиеся в срок или в последний час перед сроком; фигурными скобками обозначены явления, наблюдавшиеся между сроками (за 1-3 часа до срока); квадратными скобками обозначены град или гололедные отложения с указанием их диаметра в мм.
Облачность - указаны через наклонную черту общая и нижняя облачность в баллах и высота нижней границы облаков в метрах; квадратными скобками обозначены формы облаков: Ci - перистые, Cs - перисто-слоистые, Cc - перисто-кучевые, Ac - высококучевые, As - высокослоистые, Sc - слоисто-кучевые, Ns - слоисто-дождевые, Cu - кучевые, Cb - кучево-дождевые. Подробнее классификацию облаков см. в Атласе облаков (PDF).
T - Температура воздуха - температура, измеренная на высоте 2 м над землей.
Td - Температура точки росы - температура, при понижении до которой содержащийся в воздухе водяной пар достигнет насыщения.
f - Относительная влажность воздуха - влажноcть воздуха, измеренная на высоте 2 м над землей.
Te - Эффективная температура - температура, которую ощущает одетый по сезону человек в тени. Характеристика душности погоды. При расчете учитывается влияние влажности воздуха и скорости ветра на теплоощущения человека.
Tes - Эффективная температура на солнце - температура, которую ощущает человек, с поправкой на солнечный нагрев. Характеристика знойности погоды. Зависит от высоты солнца над горизонтом, облачности и скорости ветра. Ночью, в пасмурную погоду, а также при ветре 12 м/с и более поправка равна нулю.
P - Атмосферное давление - приведенное к уровню моря атмосферное давление.
Po - Атмосферное давление - измеренное на уровне метеостанции атмосферное давление.
Tmin - Минимальная температура - минимум температуры воздуха на высоте 2 м над землей.
Tmax - Максимальная температура - максимум температуры воздуха на высоте 2 м над землей.
R - Количество осадков - Количество выпавших осадков за период времени, мм. При наведении курсора мыши на число - период времени, за который выпало указанное количество осадков.
R24 - Количество осадков - Количество выпавших осадков за 24 часа, мм.
S - Снежный покров - Высота снежного покрова, см. При наведении курсора мыши на число - состояние снежного покрова и степень покрытия местности в баллах.